Flag for Germany Weather past 2 weeks in Greifswald, Mecklenburg-Western Pomerania, Germany

Now
61 °F

Light rain. Low clouds.


Feels Like: 61 °F
Forecast: 57 / 68 °F
Wind: 2 mph from Southwest

Location: Greifswald

Current Time: Aug 27, 2015 at 11:48:01 PM

Latest Report: Aug 27, 2015 at 10:00 PM


Visibility: 2 mi

Pressure: 29.84 "Hg

Humidity: 97%

Dew point: 60 °F

Location of GreifswaldLocation

Historic Weather in Greifswald — Graph

°F

Greifswald temperature yesterday

Maximum temperature yesterday: 75 °F (at 6:00 PM)
Minimum temperature yesterday: 57 °F (at 7:00 AM)
Average temperature yesterday: 65 °F

Past Weeks' High & Low Weather Summary

 TemperatureHumidityPressure
High81 °F (Aug 15, 3:00 PM)99% (Aug 15, 10:00 PM)30.35 "Hg (Aug 15, 10:00 PM)
Low51 °F (Aug 22, 6:00 AM)29% (Aug 21, 2:00 PM)29.71 "Hg (Aug 25, 1:00 AM)
Average67 °F73%30.01 "Hg
* Reported Aug 12 10:00 PM — Aug 27 10:00 PM, Greifswald, Weather by CustomWeather, © 2015

Note: Actual official high and low records may vary slightly from our data, if they occured in-between our weather recording intervals... More about our weather records

Advertising

Greifswald weather history for previous 24 hours

 ConditionsComfort  
Time TempWeatherWind HumidityBarometerVisibility
10:00 PM
Thu, Aug 27
61 °FLight rain. Low clouds.2 mph97%29.84 "Hg2 mi
9:00 PM62 °FLight rain. Low clouds.3 mph96%29.85 "Hg2 mi
8:00 PM64 °FLight rain. Overcast.1 mph94%29.84 "Hg4 mi
7:00 PM64 °FLight rain. Overcast.2 mph92%29.85 "Hg7 mi
6:00 PM67 °FLight rain. Overcast.1 mph86%29.85 "Hg16 mi
4:00 PM71 °FOvercast.3 mph71%29.86 "Hg22 mi
3:00 PM69 °FOvercast.3 mph72%29.86 "Hg25 mi
2:00 PM69 °FLight rain. Overcast.3 mph76%29.86 "Hg25 mi
1:00 PM68 °FLight rain. Overcast.2 mph74%29.85 "Hg12 mi
12:00 PM70 °FLight rain. Overcast.7 mph66%29.85 "Hg16 mi
11:00 AM70 °FOvercast.5 mph56%29.83 "Hg34 mi
10:00 AM67 °FLight rain. Overcast.5 mph58%29.82 "Hg22 mi
9:00 AM66 °FOvercast.5 mph57%29.80 "Hg31 mi
8:00 AM66 °FOvercast.5 mph58%29.78 "Hg22 mi
7:00 AM63 °FPartly sunny.3 mph64%29.80 "Hg37 mi
4:00 AM64 °FPassing clouds.3 mph70%29.86 "Hg34 mi
3:00 AM64 °FPassing clouds.2 mph72%29.87 "Hg34 mi
2:00 AM66 °FPassing clouds.2 mph70%29.88 "Hg37 mi
1:00 AM67 °FPassing clouds.3 mph69%29.90 "Hg40 mi
12:00 AM67 °FPassing clouds.3 mph69%29.90 "Hg37 mi
Weather by CustomWeather, © 2015

See weather overviewHow to use our weather pages